HA8LNU Weather Reports


time (UTC)temp
F
wind
direction
speed
knots
gust
knots
rain 1hr
in
rain 24hr
in
rain mn
in
humidity
%
barometer
mb
20260507065516 62 0.0 0.0 0.00 0.00 0.00 81 1015.3
20260507064030 61 0.0 0.9 0.00 0.00 0.00 79 1015.3
20260507063027 61 0.0 0.9 0.00 0.00 0.00 77 1015.3
20260507062026 62 0.0 0.9 0.00 0.00 0.00 74 1015.2
20260507061023 63 225 0.0 1.7 0.00 0.00 0.00 72 1015.1
20260507060042 63 0.0 1.7 0.00 0.00 0.00 71 1015.0
20260507055019 63 180 0.0 1.7 0.00 0.00 0.00 70 1014.9
20260507054017 63 225 0.0 1.7 0.00 0.00 0.00 71 1014.6
20260507053015 62 0.0 0.9 0.00 0.00 0.00 71 1014.6
20260507052133 62 0.0 0.0 0.00 0.00 0.00 72 1014.5
20260507051111 61 0.0 0.0 0.00 0.00 0.00 72 1014.4
20260507050108 60 0.0 0.9 0.00 0.00 0.00 72 1014.4
20260507045106 60 0.0 1.7 0.00 0.00 0.00 73 1014.4
20260507044104 59 0.0 0.0 0.00 0.00 0.00 74 1014.2
20260507043103 59 0.0 0.0 0.00 0.00 0.00 75 1014.1
20260507042100 59 0.0 0.0 0.00 0.00 0.00 74 1013.9
20260507041058 59 0.0 0.0 0.00 0.00 0.00 74 1013.6
20260507040056 58 0.0 0.0 0.00 0.00 0.00 74 1013.6
20260507035054 58 0.0 0.0 0.00 0.00 0.00 73 1013.6
20260507034052 58 0.0 0.9 0.00 0.00 0.00 74 1013.8
20260507033050 58 0.0 0.9 0.00 0.00 0.00 74 1013.8
20260507032048 58 0.0 0.0 0.00 0.00 0.00 74 1013.6
20260507031046 58 0.0 1.7 0.00 0.00 0.00 74 1013.6
20260507030043 58 0.0 0.0 0.00 0.00 0.00 74 1013.3
20260507025041 58 0.0 0.0 0.00 0.00 0.00 73 1012.9
20260507024039 59 0.0 0.0 0.00 0.00 0.00 73 1012.8
20260507023037 59 0.0 0.0 0.00 0.00 0.00 72 1012.9
20260507022115 59 0.0 0.0 0.00 0.00 0.00 72 1013.0
20260507021113 59 0.0 0.0 0.00 0.00 0.00 72 1012.9
20260507020031 59 0.0 0.0 0.00 0.00 0.00 71 1012.7
20260507015029 59 0.0 0.0 0.00 0.00 0.00 70 1012.8
20260507014026 60 0.0 0.0 0.00 0.00 0.00 70 1012.9
20260507013024 60 0.0 0.0 0.00 0.00 0.00 69 1012.9
20260507012022 60 0.0 0.0 0.00 0.00 0.00 68 1012.5
20260507010018 60 0.0 0.0 0.00 0.00 0.00 66 1012.5
20260507005016 60 0.0 0.0 0.00 0.00 0.00 64 1012.6
20260507004114 61 0.0 0.0 0.00 0.00 0.00 63 1012.7
20260507003112 61 315 0.0 1.7 0.00 0.00 0.00 63 1012.9
20260507002109 60 187 0.9 3.5 0.00 0.00 0.00 63 1013.0
20260507001108 59 173 0.9 1.7 0.00 0.00 0.00 64 1013.0
20260507000105 58 219 0.9 1.7 0.00 0.00 0.00 65 1013.1
20260506235103 58 270 0.0 1.7 0.00 0.00 0.00 66 1013.0
20260506234101 57 210 0.0 1.7 0.00 0.00 0.00 68 1013.1
20260506233059 57 243 0.9 3.5 0.00 0.00 0.00 68 1012.8
20260506232057 57 0.0 0.9 0.00 0.00 0.00 67 1012.4
20260506231055 57 0.0 0.9 0.00 0.00 0.00 68 1012.2
20260506230053 57 225 0.0 1.7 0.00 0.00 0.00 70 1012.2
20260506225051 56 0.0 0.9 0.00 0.00 0.00 70 1012.1
20260506224049 55 0.0 1.7 0.00 0.00 0.00 71 1012.2
20260506223047 55 180 0.0 1.7 0.00 0.00 0.00 71 1012.2
20260506222045 55 0.0 0.0 0.00 0.00 0.00 71 1012.2
20260506221042 55 0.0 0.0 0.00 0.00 0.00 71 1012.3
20260506220040 55 0.0 0.0 0.00 0.00 0.00 70 1012.3
20260506215038 56 0.0 0.0 0.00 0.00 0.00 70 1012.2
20260506214036 56 0.0 0.0 0.00 0.00 0.00 69 1012.2
20260506213054 57 0.0 0.0 0.00 0.00 0.00 68 1012.3
20260506212031 57 0.0 0.0 0.00 0.00 0.00 67 1012.3
20260506211029 57 0.0 0.0 0.00 0.00 0.00 66 1012.1
20260506210027 58 0.0 0.0 0.00 0.00 0.00 65 1012.2
20260506205025 59 0.0 0.0 0.00 0.00 0.00 64 1012.2
20260506204103 59 0.0 0.0 0.00 0.00 0.00 63 1012.1
20260506203021 59 0.0 1.7 0.00 0.00 0.00 63 1012.2
20260506202019 60 0.0 0.9 0.00 0.00 0.00 62 1012.1
20260506201017 61 0.0 0.9 0.00 0.00 0.00 61 1012.1
20260506200015 61 0.0 0.0 0.00 0.00 0.00 61 1012.0
20260506195113 61 0.0 0.9 0.00 0.00 0.00 62 1012.1
20260506194111 61 0.0 0.9 0.00 0.00 0.00 62 1012.0
20260506193109 61 0.0 1.7 0.00 0.00 0.00 63 1012.0
20260506192106 61 0.0 0.0 0.00 0.00 0.00 63 1012.0
20260506191124 62 0.0 0.0 0.00 0.00 0.00 62 1012.1
20260506185100 63 0.0 0.0 0.00 0.00 0.00 61 1011.9
20260506184058 64 0.0 0.0 0.00 0.00 0.00 56 1011.9
20260506183056 65 0.0 0.0 0.00 0.00 0.00 54 1011.8
20260506182114 65 0.0 0.0 0.00 0.00 0.00 53 1011.5
20260506181052 67 0.0 0.0 0.00 0.00 0.00 52 1011.7
20260506180049 68 0.0 0.0 0.00 0.00 0.00 51 1011.6
20260506175047 69 0.0 0.0 0.00 0.00 0.00 50 1011.5
20260506174105 70 0.0 0.0 0.00 0.00 0.00 45 1011.5
20260506173043 72 0.0 0.0 0.00 0.00 0.00 44 1011.5
20260506172041 73 0.0 0.0 0.00 0.00 0.00 40 1011.5
20260506171039 74 0.0 0.9 0.00 0.00 0.00 38 1011.6
20260506170037 75 0.0 1.7 0.00 0.00 0.00 36 1011.5
20260506165035 76 225 0.9 1.7 0.00 0.00 0.00 35 1011.5
20260506164033 76 199 0.9 1.7 0.00 0.00 0.00 34 1011.4
20260506163030 77 198 1.7 4.3 0.00 0.00 0.00 33 1011.6
20260506162028 77 209 0.9 3.5 0.00 0.00 0.00 33 1011.5
20260506161026 78 184 2.6 6.1 0.00 0.00 0.00 33 1011.5
20260506160045 78 200 2.6 6.1 0.00 0.00 0.00 33 1011.6
20260506155022 78 214 1.7 3.5 0.00 0.00 0.00 32 1011.7
20260506154020 79 225 0.9 4.3 0.00 0.00 0.00 32 1011.8
20260506153018 80 178 2.6 7.0 0.00 0.00 0.00 31 1011.8
20260506152036 82 227 2.6 7.0 0.00 0.00 0.00 28 1011.9
20260506151114 81 231 1.7 3.5 0.00 0.00 0.00 30 1011.9
20260506150111 81 196 1.7 3.5 0.00 0.00 0.00 30 1012.1
20260506145109 82 195 1.7 3.5 0.00 0.00 0.00 27 1012.1
20260506144108 82 157 3.5 5.2 0.00 0.00 0.00 27 1012.3
20260506143105 82 211 3.5 6.1 0.00 0.00 0.00 27 1012.3
20260506142103 83 187 3.5 6.1 0.00 0.00 0.00 26 1012.3
20260506141101 83 225 1.7 3.5 0.00 0.00 0.00 26 1012.3
20260506140059 83 202 2.6 7.0 0.00 0.00 0.00 25 1012.4
20260506135057 84 230 4.3 12.2 0.00 0.00 0.00 25 1012.4
20260506134055 83 257 3.5 6.1 0.00 0.00 0.00 25 1012.5
20260506133052 83 246 3.5 8.7 0.00 0.00 0.00 26 1012.7
20260506132051 84 237 3.5 9.6 0.00 0.00 0.00 24 1012.7
20260506131048 85 210 2.6 5.2 0.00 0.00 0.00 26 1012.8
20260506130046 85 210 2.6 4.3 0.00 0.00 0.00 27 1012.8
20260506125044 84 271 2.6 5.2 0.00 0.00 0.00 28 1012.9
20260506124042 84 208 3.5 6.1 0.00 0.00 0.00 26 1013.1
20260506123100 83 264 1.7 3.5 0.00 0.00 0.00 27 1013.3
20260506122038 81 114 1.7 7.0 0.00 0.00 0.00 31 1013.2
20260506121036 82 198 2.6 7.0 0.00 0.00 0.00 29 1013.4
20260506120033 81 207 2.6 7.0 0.00 0.00 0.00 31 1013.4
20260506115032 81 214 2.6 7.0 0.00 0.00 0.00 32 1013.5
20260506114030 80 185 4.3 9.6 0.00 0.00 0.00 31 1013.8
20260506113027 82 186 2.6 5.2 0.00 0.00 0.00 30 1013.8
20260506112025 80 158 3.5 7.0 0.00 0.00 0.00 32 1013.8
20260506111023 81 187 3.5 7.8 0.00 0.00 0.00 30 1013.9
20260506110021 82 169 2.6 5.2 0.00 0.00 0.00 30 1013.9
20260506105019 82 213 3.5 7.8 0.00 0.00 0.00 30 1013.9
20260506104037 81 233 1.7 4.3 0.00 0.00 0.00 32 1014.1
20260506103015 79 210 2.6 7.0 0.00 0.00 0.00 34 1014.1
20260506102113 80 192 2.6 6.1 0.00 0.00 0.00 33 1014.2
20260506101111 79 175 4.3 13.0 0.00 0.00 0.00 34 1014.2
20260506100109 79 192 2.6 9.6 0.00 0.00 0.00 34 1014.3
20260506095107 79 192 3.5 8.7 0.00 0.00 0.00 35 1014.4
20260506094124 79 215 4.3 7.0 0.00 0.00 0.00 34 1014.5
20260506093122 79 146 3.5 6.1 0.00 0.00 0.00 36 1014.5
20260506092100 78 178 2.6 5.2 0.00 0.00 0.00 35 1014.6
20260506091058 78 268 2.6 6.1 0.00 0.00 0.00 34 1014.7
20260506090056 77 155 3.5 6.1 0.00 0.00 0.00 36 1014.7
20260506085054 77 263 3.5 7.0 0.00 0.00 0.00 36 1014.7
20260506084052 77 218 3.5 5.2 0.00 0.00 0.00 36 1014.6
20260506083049 76 225 2.6 5.2 0.00 0.00 0.00 37 1014.5
20260506082047 76 249 2.6 5.2 0.00 0.00 0.00 37 1014.6
20260506081045 76 206 3.5 7.8 0.00 0.00 0.00 37 1014.6
20260506080103 75 225 2.6 9.6 0.00 0.00 0.00 37 1014.6
20260506073037 73 237 3.5 6.1 0.00 0.00 0.00 40 1014.6
20260506072035 73 246 1.7 4.3 0.00 0.00 0.00 41 1014.7
20260506071053 72 249 2.6 6.1 0.00 0.00 0.00 44 1014.7